Station 41013 (LLNR 815) - Frying Pan Shoals, NC Image indicating link to RSS feed of recent meteorological observations for station 41013


Conditions at 41013 as of
(9:00 am EDT)
1300 GMT on 05/24/2024:
     

Click on the graph icon in the table below to see a time series plot of the last five days of that observation.

5-day plot - Wind Direction Wind Direction (WDIR):WSW ( 240 deg true )
5-day plot - Wind Speed Wind Speed (WSPD): 9.7 kts
5-day plot - Wind Gust Wind Gust (GST): 11.7 kts
5-day plot - Atmospheric Pressure Atmospheric Pressure (PRES):29.95 in
5-day plot - Pressure Tendency Pressure Tendency (PTDY):+0.01 in ( Rising )
5-day plot - Air Temperature Air Temperature (ATMP): 75.2 °F
5-day plot - Water Temperature Water Temperature (WTMP): 74.3 °F
5-day plot - Dew Point Dew Point (DEWP): 73.2 °F
5-day plot - Wind Speed at 10 Meters Wind Speed at 10 meters (WSPD10M): 9.7 kts
5-day plot - Wind Speed at 20 Meters Wind Speed at 20 meters (WSPD20M): 11.7 kts
5-day plot -  Wind Speed, Wind Gust and Atmospheric Pressure Combined plot of Wind Speed, Gust, and Air Pressure
Supplemental Measurements
Highest 1-minute Wind Speed
Time (EDT)5-day plot - 1-Minute Wind Speed WSPD 5-day plot - 1-Minute Wind Direction WDIR
9:00 am 9.7 kts-
Previous observations
TIME
(EDT)
5-day plot - Wind Direction
WDIR
 
5-day plot - Wind Speed
WSPD
kts
5-day plot - Wind Gust
GST
kts
5-day plot - Wave Height
WVHT
ft
5-day plot - Dominant Wave Period
DPD
sec
5-day plot - Average Wave Period
APD
sec
5-day plot - Mean Wave Direction
MWD
 
5-day plot - Atmospheric Pressure
PRES
in
5-day plot - Pressure Tendency
PTDY
in
5-day plot - Air Temperature
ATMP
°F
5-day plot - Water Temperature
WTMP
°F
5-day plot - Dew Point
DEWP
°F
5-day plot - Salinity
SAL
psu
5-day plot - Visibility
VIS
nmi
5-day plot - Tide (above MLLW)
TIDE
ft
2024-05-24 08:50 am SW 9.7 11.7 1.6 43.8SSW29.96- 75.2 74.3 73.2---
2024-05-24 08:40 am SW 9.7 11.7----29.96- 75.0 74.3 73.0---
2024-05-24 08:30 am SW 7.8 9.7----29.96- 75.0 74.3 73.2---
2024-05-24 08:20 am SW 7.8 9.7 1.6 93.9 E29.96- 75.0 74.3 73.2---
2024-05-24 08:10 am SW 7.8 9.7 1.6-3.9 E29.96- 75.0 74.3 73.2---
2024-05-24 08:00 am SW 7.8 9.7----29.96+0.02 75.0 74.3 73.0---
2024-05-24 07:50 amWSW 7.8 9.7 2.0 83.9 E29.96- 75.0 74.3 73.0---
2024-05-24 07:40 amWSW 7.8 9.7----29.96- 74.8 74.3 72.9---
2024-05-24 07:30 amWSW 7.8 9.7----29.96- 75.0 74.3 73.0---
2024-05-24 07:20 amWSW 7.8 9.7 1.6 43.8 SW29.96- 75.0 74.5 73.0---
2024-05-24 07:10 amWSW 7.8 9.7 1.6-3.8 SW29.96- 75.0 74.5 73.0---
2024-05-24 07:00 amWSW 7.8 9.7----29.95+0.00 74.8 74.5 72.9---
2024-05-24 06:50 amWSW 7.8 9.7 2.0 33.9SSW29.95- 75.0 74.5 72.9---
2024-05-24 06:40 amWSW 7.8 9.7----29.95- 75.0 74.5 72.9---
2024-05-24 06:30 am SW 7.8 9.7----29.94- 75.0 74.5 72.9---
2024-05-24 06:20 am SW 7.8 9.7 2.0 94.2 E29.94- 75.0 74.5 72.9---
2024-05-24 06:10 am SW 9.7 9.7 2.0-4.2 E29.94- 75.0 74.5 72.9---
2024-05-24 06:00 amWSW 9.7 11.7----29.94-0.02 75.0 74.3 72.7---
2024-05-24 05:50 amWSW 7.8 9.7 2.0 44.0SSW29.93- 75.0 74.5 72.7---
2024-05-24 05:40 amWSW 9.7 11.7 2.0-4.0SSW29.93- 74.8 74.5 72.7---
2024-05-24 05:30 amWSW 7.8 9.7----29.94- 74.8 74.3 72.7---
2024-05-24 05:20 amWSW 7.8 9.7 2.0 84.0 E29.94- 74.7 74.5 72.7---
2024-05-24 05:10 amWSW 5.8 7.8 2.0-4.0 E29.94- 74.7 74.5 72.7---
2024-05-24 05:00 amWSW 5.8 7.8----29.94-0.03 74.7 74.5 72.7---
2024-05-24 04:50 amWSW 5.8 7.8 2.0 84.2 E29.94- 74.7 74.5 72.7---
2024-05-24 04:40 am W 5.8 5.8----29.95- 74.8 74.5 72.9---
2024-05-24 04:30 amWSW 3.9 5.8----29.95- 74.8 74.5 72.9---
2024-05-24 04:20 am SW 3.9 5.8 2.0 54.0ESE29.95- 74.8 74.5 72.9---
2024-05-24 04:10 am SW 3.9 5.8 2.0-4.0ESE29.95- 75.0 74.5 73.0---
2024-05-24 04:00 am SW 3.9 3.9----29.95-0.03 75.2 74.5 73.0---
2024-05-24 03:50 am SW 3.9 5.8 2.0 84.2 E29.95- 75.2 74.5 72.9---
2024-05-24 03:40 amSSW 3.9 5.8----29.95- 75.4 74.5 72.9---
2024-05-24 03:30 am SW 5.8 5.8----29.95- 75.4 74.5 72.5---
2024-05-24 03:20 amSSW 5.8 7.8 2.0 84.3 E29.96- 75.4 74.7 72.5---
2024-05-24 03:10 am SW 5.8 7.8 2.0-4.3 E29.96- 75.4 74.7 72.5---
2024-05-24 03:00 am SW 5.8 7.8----29.96-0.03 75.2 74.7 72.5---
2024-05-24 02:50 amWSW 5.8 5.8 2.0 84.2 E29.96- 75.6- 72.7---
2024-05-24 02:40 am SW 5.8 7.8----29.96- 75.6 74.7 72.3---
2024-05-24 02:30 am SW 5.8 7.8----29.97- 75.6 74.7 72.1---
2024-05-24 02:20 am SW 5.8 7.8 2.0 84.2 E29.97- 75.6 74.7 72.1---
2024-05-24 02:10 am SW 5.8 7.8 2.0-4.2 E29.97- 75.7 74.8 72.3---
2024-05-24 02:00 am SW 7.8 9.7----29.97-0.03 75.7 74.8 72.1---
2024-05-24 01:50 am SW 7.8 9.7 2.0 94.4 E29.98- 75.7 75.0 72.1---
2024-05-24 01:40 am SW 5.8 7.8----29.97- 75.7 75.0 72.1---
2024-05-24 01:30 am SW 5.8 7.8----29.98- 75.9 75.0 72.1---
2024-05-24 01:20 am SW 7.8 7.8 2.0 104.3ESE29.98- 76.1 75.2 72.0---
2024-05-24 01:10 am SW 7.8 7.8 2.0-4.3ESE29.98- 76.1 75.4 72.0---
2024-05-24 01:00 am SW 7.8 9.7----29.98+0.00 76.1 75.4 72.0---
2024-05-24 12:50 am SW 7.8 7.8 2.0 94.3 E29.98- 76.1 75.4 72.0---
2024-05-24 12:40 am SW 7.8 7.8----29.98- 76.3 75.4 72.0---
2024-05-24 12:30 am SW 7.8 9.7----29.99- 76.5 75.4 71.4---
2024-05-24 12:20 am SW 7.8 11.7 2.0 84.1 E29.99- 76.3 75.4 71.6---
2024-05-24 12:10 am SW 7.8 9.7 2.0-4.1 E29.99- 76.5 75.2 71.4---
2024-05-24 12:00 am SW 7.8 9.7----29.99+0.02 76.6 75.2 71.2---
2024-05-23 11:50 pm SW 7.8 9.7 2.0 94.0 E29.99- 76.8 75.4 70.9---
2024-05-23 11:40 pm SW 9.7 11.7----30.00- 77.2 75.4 70.7---
2024-05-23 11:30 pm SW 9.7 11.7----30.00- 77.2 75.6 70.5---
2024-05-23 11:20 pm SW 9.7 11.7 2.0 104.0ESE30.00- 77.4 75.2 70.5---
2024-05-23 11:10 pm SW 9.7 11.7 2.0-4.0ESE30.00- 77.5 75.4 70.5---
2024-05-23 11:00 pmSSW 11.7 11.7----30.00+0.03 77.7 75.4 70.5---
2024-05-23 10:50 pmSSW 11.7 13.6 2.0 93.8 E30.00- 77.9 75.6 70.2---
2024-05-23 10:40 pmSSW 11.7 13.6----29.99- 77.9 75.7 70.0---
2024-05-23 10:30 pmSSW 11.7 13.6----29.99- 77.9 75.7 70.2---
2024-05-23 10:20 pmSSW 11.7 13.6 2.0 83.8ESE29.99- 77.9 76.1 70.2---
2024-05-23 10:10 pmSSW 11.7 15.5 2.0-3.8ESE29.99- 78.1 76.3 70.0---
2024-05-23 10:00 pmSSW 11.7 13.6----29.98+0.01 77.9 76.3 69.8---
2024-05-23 09:50 pmSSW 11.7 15.5 2.0 93.8ESE29.98- 78.1 76.5 70.0---
2024-05-23 09:40 pmSSW 11.7 13.6 2.0-3.8ESE29.98- 78.1 76.5 69.8---
2024-05-23 09:30 pm S 11.7 15.5----29.98- 78.1 76.6 70.0---
2024-05-23 09:20 pm S 11.7 15.5 2.0 83.7 E29.97- 78.1 77.0 69.6---
2024-05-23 09:10 pm S 11.7 13.6 2.0-3.7 E29.97- 78.3 77.2 69.4---
2024-05-23 09:00 pm S 11.7 15.5----29.97-0.02 78.1 77.4 69.1---
2024-05-23 08:50 pm S 11.7 13.6 2.0 94.2 E29.97- 78.1 77.7 68.9---
2024-05-23 08:40 pm S 11.7 13.6----29.97- 78.3 77.9 69.1---
2024-05-23 08:30 pm S 11.7 13.6----29.98- 78.3 78.1 68.9---
2024-05-23 08:20 pm S 11.7 13.6 1.6 84.3 E29.98- 78.3 78.3 68.5---
2024-05-23 08:10 pm S 11.7 13.6 1.6-4.3 E29.97- 78.3 78.3 68.7---
2024-05-23 08:00 pm S 11.7 13.6----29.97-0.01 78.3 78.3 68.7---
2024-05-23 07:50 pm S 11.7 13.6 1.6 94.5ENE29.97- 78.4 78.3 68.2---
2024-05-23 07:40 pm S 11.7 13.6----29.97- 78.4 78.1 67.8---
2024-05-23 07:20 pm S 11.7 13.6 1.6 84.7 E29.97- 78.3 77.9 68.4---
2024-05-23 07:10 pm S 11.7 13.6 1.6-4.7 E29.97- 78.3 77.9 68.2---
2024-05-23 07:00 pm S 9.7 11.7----29.97-0.03 78.4 77.9 67.8---
2024-05-23 06:50 pm S 11.7 13.6 1.6 105.2 E29.97- 78.4 77.9 66.9---
2024-05-23 06:40 pm S 9.7 11.7----29.98- 78.4 77.9 67.1---
2024-05-23 06:30 pmSSW 9.7 11.7----29.98- 78.3 77.5 67.5---
2024-05-23 06:20 pmSSW 9.7 11.7 1.6 85.5 E29.98- 78.1 77.2 67.5---
2024-05-23 06:10 pmSSW 9.7 9.7 1.6-5.5 E29.98- 78.3 76.8 67.6---
2024-05-23 06:00 pmSSW 7.8 9.7----29.98-0.04 78.1 76.6 67.3---
2024-05-23 05:50 pm SW 7.8 9.7 1.6 95.7 E29.98- 77.9 76.6 67.8---
2024-05-23 05:40 pmSSW 7.8 9.7 1.6-5.7 E29.98- 77.9 76.5 68.0---
2024-05-23 05:30 pmSSW 9.7 11.7----29.98- 77.9 75.6 67.6---
2024-05-23 05:20 pmSSW 9.7 11.7 1.6 85.2 E29.98- 77.9 75.6 67.1---
2024-05-23 05:10 pm S 9.7 9.7 1.6-5.2 E29.98- 77.7 75.4 66.4---
2024-05-23 05:00 pm S 9.7 11.7----29.98-0.06 77.5 75.2 64.8---
2024-05-23 04:50 pm S 7.8 9.7 1.6 95.4ENE29.99- 77.4 75.0 65.1---
2024-05-23 04:40 pm S 7.8 9.7 1.6-5.4ENE29.99- 77.0 75.0 66.0---
2024-05-23 04:30 pm S 7.8 7.8----29.99- 76.8 75.0 66.9---
2024-05-23 04:20 pm S 7.8 7.8 1.6 85.4 E29.99- 76.6 75.0 67.1---
2024-05-23 04:10 pm S 7.8 9.7 1.6-5.4 E30.00- 76.5 74.8 67.6---
2024-05-23 04:00 pm S 5.8 7.8----30.00-0.05 76.5 74.7 67.5---
2024-05-23 03:50 pm S 5.8 7.8 2.0 95.6 E30.01- 76.3 74.7 67.5---
2024-05-23 03:40 pmSSW 5.8 7.8 2.0-5.6 E30.01- 76.1 74.7 67.3---
2024-05-23 03:30 pm S 5.8 7.8----30.02- 75.9 74.7 67.1---
2024-05-23 03:20 pm S 5.8 7.8 1.6 85.7 E30.02- 75.9 74.8 67.5---
2024-05-23 03:10 pm S 3.9 5.8 1.6-5.7 E30.02- 75.9 74.7 67.6---
2024-05-23 03:00 pmSSW 3.9 3.9----30.02-0.03 75.7 74.5 67.8---
2024-05-23 02:50 pmWSW 3.9 5.8 1.6 95.8 E30.03- 75.7 74.3 67.6---
2024-05-23 02:40 pmWSW 3.9 5.8----30.03- 75.7 74.3 67.5---
2024-05-23 02:30 pm SW 1.9 3.9----30.03- 75.7 74.5 67.5---
2024-05-23 02:20 pm W 1.9 3.9 1.6 95.8 E30.04- 75.6 74.7 67.6---
2024-05-23 02:10 pm W 1.9 3.9 1.6-5.8 E30.04- 75.6 74.8 68.0---
2024-05-23 02:00 pm W 1.9 3.9----30.04-0.01 75.6 75.0 67.6---
2024-05-23 01:50 pm W 1.9 3.9 1.6 95.9 E30.04- 75.4 75.0 68.0---
2024-05-23 01:40 pm W 3.9 3.9----30.05- 75.2 75.0 68.2---
2024-05-23 01:30 pmWNW 3.9 5.8----30.05- 75.2 74.8 68.2---
2024-05-23 01:20 pmWNW 5.8 7.8 1.6 105.6 E30.05- 75.0 75.2 68.2---
2024-05-23 01:10 pmWNW 7.8 9.7 1.6-5.6 E30.05- 75.0 75.2 68.5---
2024-05-23 01:00 pmWNW 7.8 9.7----30.05+0.00 74.8 75.0 68.7---
2024-05-23 12:50 pmWNW 5.8 7.8 1.6 95.7 E30.05- 74.8 74.7 69.1---
2024-05-23 12:40 pmWNW 5.8 7.8----30.05- 74.8 74.7 69.1---
2024-05-23 12:30 pmWNW 5.8 5.8----30.05- 74.8 74.7 69.4---
2024-05-23 12:20 pmWNW 5.8 5.8 1.6 95.9 E30.05- 74.8 74.3 69.3---
2024-05-23 12:10 pmWNW 5.8 5.8 1.6-5.9 E30.05- 74.8 74.1 69.1---
2024-05-23 12:00 pmWNW 5.8 5.8----30.05-0.01 74.8- 68.9---
2024-05-23 11:50 amWNW 5.8 5.8 1.6 95.7 E30.05- 74.8 74.1 68.9---
2024-05-23 11:40 amWNW 5.8 5.8 1.6-5.7 E30.06- 74.8 74.1 69.3---
2024-05-23 11:30 amWNW 5.8 5.8----30.06- 74.8 74.1 69.3---
2024-05-23 11:20 amWNW 5.8 5.8 1.6 106.4 E30.06- 74.8 74.3 69.3---
2024-05-23 11:10 amWNW 5.8 7.8 1.6-6.4 E30.06- 74.8 74.3 69.4---
2024-05-23 11:00 amWNW 5.8 7.8----30.06+0.02 74.8 74.1 69.6---
2024-05-23 10:50 amWNW 5.8 7.8 1.6 106.1 E30.06- 74.8 74.1 69.6---
2024-05-23 10:40 amWNW 5.8 5.8 1.6-6.1 E30.06- 74.7 74.1 69.6---
2024-05-23 10:30 amWNW 5.8 7.8----30.06- 74.8 74.1 69.8---
2024-05-23 10:20 am W 3.9 5.8 1.6 95.7 E30.05- 74.7 74.1 69.8---
2024-05-23 10:10 am W 5.8 5.8 1.6-5.7 E30.06- 74.5 74.1 69.6---
2024-05-23 10:00 amWNW 5.8 5.8----30.06+0.04 74.5 74.1 70.0---
2024-05-23 09:50 amWNW 5.8 7.8 1.6 95.8 E30.06- 74.5 74.3 70.0---
2024-05-23 09:40 amWNW 5.8 5.8 1.6-5.8 E30.06- 74.3 74.3 70.0---
2024-05-23 09:30 amWNW 5.8 5.8----30.06- 74.3 74.3 70.3---
2024-05-23 09:20 amWNW 5.8 5.8 1.6 85.7 E30.06- 74.1 74.3 70.5---
2024-05-23 09:10 amWNW 5.8 7.8 1.6-5.7 E30.06- 73.9 74.3 70.7---
2024-05-23 09:00 amWNW 5.8 7.8----30.06+0.04 74.3 74.3 71.6---
2024-05-23 08:50 amWNW 5.8 7.8 2.0 105.9 E30.06- 74.7 74.3 71.2---

Detailed Wave Summary
for 41013 as of (8:40 am EDT)
1240 GMT on 05/24/2024:

These wave data are displayed in rounded times.

     

Click on the graph icon in the table below to see a time series plot of the last five days of that observation.

5-day plot - Significant Wave Height Significant Wave Height (WVHT): 1.6 ft
5-day plot - Swell Height Swell Height (SwH): 1.0 ft
5-day plot - Swell Period Swell Period (SwP): 9.1 sec
5-day plot - Swell Direction Swell Direction (SwD): E
5-day plot - Wind Wave Height Wind Wave Height (WWH): 1.3 ft
5-day plot - Wind Wave Period Wind Wave Period (WWP): 3.6 sec
5-day plot - Wind Wave Direction Wind Wave Direction (WWD):SSW
5-day plot - Average Wave Period Average Wave Period (APD): 3.8 sec
Previous observations
TIME
(EDT)
5-day plot - Wave Height
WVHT
ft
5-day plot - Swell Height
SwH
ft
5-day plot - Swell Period
SwP
sec
5-day plot - Swell Direction
SwD
 
5-day plot - Wind Wave Height
WWH
ft
5-day plot - Wind Wave Period
WWP
sec
5-day plot - Wind Wave Direction
WWD
 
5-day plot - Wave Steepness
STEEPNESS
 
5-day plot - Average Wave Period
APD
sec
2024-05-24 08:10 am 1.6 1.3 9.1 E 1.3 3.7 SSW N/A 3.9
2024-05-24 07:40 am 2.0 1.3 7.7 E 1.3 3.6 SSW N/A 3.9
2024-05-24 07:10 am 1.6 1.3 7.7 E 1.3 3.6 SW N/A 3.8
2024-05-24 06:40 am 2.0 1.3 8.3 E 1.3 3.4 SSW N/A 3.9
2024-05-24 06:10 am 2.0 1.3 9.1 E 1.3 3.6 SSW N/A 4.2
2024-05-24 05:40 am 2.0 1.3 8.3 E 1.6 3.6 SSW N/A 4.0
2024-05-24 05:10 am 2.0 1.3 8.3 E 1.3 3.6 SSW N/A 4.0
2024-05-24 04:40 am 2.0 1.6 7.7 E 1.3 3.3 SSW N/A 4.2
2024-05-24 04:10 am 2.0 1.6 4.8ESE 1.3 3.4 SSW N/A 4.0
2024-05-24 03:40 am 2.0 1.6 8.3 E 1.3 3.4 SSW N/A 4.2
2024-05-24 03:10 am 2.0 1.6 8.3 E 1.3 3.6 SSW N/A 4.3
2024-05-24 02:40 am 2.0 1.6 7.7 E 1.3 3.3 S N/A 4.2
2024-05-24 02:10 am 2.0 1.3 8.3 E 1.3 3.6 S N/A 4.2
2024-05-24 01:40 am 2.0 1.6 9.1 E 1.3 3.3 SSW N/A 4.4
2024-05-24 01:10 am 2.0 1.6 10.0ESE 1.3 3.3 S N/A 4.3
2024-05-24 12:40 am 2.0 1.6 9.1 E 1.3 3.2 SSW N/A 4.3
2024-05-24 12:10 am 2.0 1.6 7.7 E 1.3 3.0 SSW N/A 4.1
2024-05-23 11:40 pm 2.0 1.3 9.1 E 1.3 2.9 SSW N/A 4.0
2024-05-23 11:10 pm 2.0 1.6 10.0ESE 1.3 2.9 SSW N/A 4.0
2024-05-23 10:40 pm 2.0 1.3 9.1 E 1.3 2.9 SSW N/A 3.8
2024-05-23 10:10 pm 2.0 1.3 7.7ESE 1.3 2.7 SSW N/A 3.8
2024-05-23 09:40 pm 2.0 1.6 9.1ESE 1.3 2.5 SSW N/A 3.8
2024-05-23 09:10 pm 2.0 1.3 8.3 E 1.3 2.4 SSW N/A 3.7
2024-05-23 08:40 pm 2.0 1.6 9.1 E 1.0 2.2 SSW N/A 4.2
2024-05-23 08:10 pm 1.6 1.3 8.3 E 1.0 5.6 E N/A 4.3
2024-05-23 07:40 pm 1.6 1.3 9.1ENE 1.0 5.0 ESE N/A 4.5
2024-05-23 07:10 pm 1.6 1.3 8.3 E 1.0 2.1 SSW N/A 4.7
2024-05-23 06:40 pm 1.6 1.3 10.0 E 1.0 4.8 ESE N/A 5.2
2024-05-23 06:10 pm 1.6 1.6 8.3 E 0.7 4.2 ESE N/A 5.5
2024-05-23 05:40 pm 1.6 1.6 9.1 E 0.7 3.8 SE N/A 5.7
2024-05-23 05:10 pm 1.6 1.6 8.3 E 0.7 3.8 ESE N/A 5.2
2024-05-23 04:40 pm 1.6 1.6 9.1ENE 0.7 4.0 ESE N/A 5.4
2024-05-23 04:10 pm 1.6 1.6 8.3 E 0.7 3.6 S N/A 5.4
2024-05-23 03:40 pm 2.0 1.6 9.1 E 0.7 4.0 ESE N/A 5.6
2024-05-23 03:10 pm 1.6 1.6 8.3 E 0.7 3.4 SE N/A 5.7
2024-05-23 02:40 pm 1.6 1.6 9.1 E 0.7 3.7 ESE N/A 5.8
2024-05-23 02:10 pm 1.6 1.6 9.1 E 0.7 4.0 SE N/A 5.8
2024-05-23 01:40 pm 1.6 1.6 9.1 E 0.7 3.8 ESE N/A 5.9
2024-05-23 01:10 pm 1.6 1.6 10.0 E 0.7 3.4 S N/A 5.6
2024-05-23 12:40 pm 1.6 1.6 9.1 E 0.7 4.0 ESE N/A 5.7
2024-05-23 12:10 pm 1.6 1.6 9.1 E 0.7 3.7 ESE N/A 5.9
2024-05-23 11:40 am 1.6 1.6 9.1 E 0.7 2.7 NW N/A 5.7
2024-05-23 11:10 am 1.6 1.6 10.0 E 0.3 4.0 SE N/A 6.4
2024-05-23 10:40 am 1.6 1.6 10.0 E 0.3 4.0 ESE N/A 6.1
2024-05-23 10:10 am 1.6 1.3 9.1 E 0.7 4.0 ESE N/A 5.7
2024-05-23 09:40 am 1.6 1.6 9.1 E 0.7 3.8 SE N/A 5.8
2024-05-23 09:10 am 1.6 1.6 8.3 E 0.7 4.0 ESE N/A 5.7

Plot of wave energy versus frequency (and period)